GW1629 Weather Reports


Display with metric or nautical units.
time (UTC)temp
F
wind
direction
speed
MPH
gust
MPH
rain 1hr
in
rain 24hr
in
rain mn
in
humidity
%
barometer
mb
20260510104023 58 131 1.0 6.0 0.00 0.00 0.00 97 1015.5
20260510103039 59 147 1.0 4.0 0.00 0.00 0.00 97 1015.5
20260510102042 59 148 0.0 3.0 0.00 0.00 0.00 97 1015.5
20260510101103 61 153 1.0 6.0 0.00 0.00 0.00 97 1015.5
20260510100025 61 135 2.0 6.0 0.00 0.00 0.00 97 1015.5
20260510095025 61 100 2.0 4.0 0.00 0.00 0.00 97 1015.5
20260510093523 60 82 2.0 5.0 0.00 0.00 0.00 97 1015.3
20260510092518 59 144 3.0 7.0 0.00 0.00 0.00 97 1015.2
20260510091527 58 143 3.0 6.0 0.00 0.00 0.00 97 1015.4
20260510090522 58 95 3.0 6.0 0.00 0.00 0.00 97 1015.4
20260510085516 57 135 2.0 8.0 0.00 0.00 0.00 97 1015.5
20260510084520 57 133 2.0 5.0 0.00 0.00 0.00 97 1015.5
20260510083520 58 95 1.0 4.0 0.00 0.00 0.00 97 1015.3
20260510082524 59 126 1.0 6.0 0.00 0.00 0.00 97 1015.4
20260510081521 59 122 1.0 5.0 0.00 0.00 0.00 97 1015.5
20260510080539 59 113 2.0 6.0 0.00 0.00 0.00 97 1014.8
20260510075522 58 78 2.0 9.0 0.00 0.00 0.00 97 1014.5
20260510074539 58 35 3.0 9.0 0.00 0.00 0.00 97 1014.6
20260510073517 58 113 2.0 8.0 0.00 0.00 0.00 97 1014.5
20260510072520 57 62 1.0 7.0 0.00 0.00 0.00 97 1014.5
20260510071516 58 144 2.0 6.0 0.00 0.00 0.00 97 1014.6
20260510070522 59 120 4.0 8.0 0.00 0.00 0.00 97 1014.5
20260510065516 59 65 3.0 12.0 0.00 0.00 0.00 97 1014.5
20260510064524 59 115 4.0 7.0 0.00 0.00 0.00 97 1014.5
20260510063522 58 105 1.0 4.0 0.00 0.00 0.00 97 1014.5
20260510062516 57 141 2.0 8.0 0.00 0.00 0.00 97 1014.5
20260510061522 57 154 1.0 4.0 0.00 0.00 0.00 97 1014.5
20260510060539 56 0.0 2.0 0.00 0.00 0.00 97 1014.5
20260510055522 56 135 1.0 7.0 0.00 0.00 0.00 97 1014.5
20260510054520 55 142 4.0 7.0 0.00 0.00 0.00 97 1014.3
20260510053518 55 158 0.0 2.0 0.00 0.00 0.00 97 1013.5
20260510052521 56 135 0.0 6.0 0.00 0.00 0.00 97 1013.5
20260510051519 55 143 2.0 6.0 0.00 0.00 0.00 97 1013.7
20260510050524 55 146 0.0 4.0 0.00 0.00 0.00 97 1013.6
20260510045518 55 191 1.0 8.0 0.00 0.00 0.00 97 1013.5
20260510044517 55 129 1.0 5.0 0.00 0.00 0.00 97 1013.6
20260510043543 55 158 0.0 2.0 0.00 0.00 0.00 97 1013.9
20260510042517 56 158 1.0 6.0 0.00 0.00 0.00 97 1014.3
20260510041525 57 0.0 3.0 0.00 0.00 0.00 97 1014.5
20260510040523 57 92 2.0 4.0 0.00 0.00 0.00 97 1014.3
20260510035526 57 131 2.0 11.0 0.00 0.00 0.00 97 1014.4
20260510034523 58 42 4.0 8.0 0.00 0.00 0.00 97 1014.3
20260510033521 58 26 5.0 9.0 0.00 0.00 0.00 97 1013.7
20260510032525 57 13 6.0 13.0 0.00 0.00 0.00 97 1013.7
20260510031520 57 52 5.0 10.0 0.00 0.00 0.00 97 1014.0
20260510030518 57 41 5.0 10.0 0.00 0.00 0.00 97 1013.9
20260510025520 57 90 1.0 5.0 0.00 0.00 0.00 97 1014.5
20260510024519 57 225 1.0 4.0 0.00 0.00 0.00 97 1014.5
20260510023517 58 150 1.0 5.0 0.00 0.00 0.00 97 1014.5
20260510022522 58 120 2.0 16.0 0.00 0.00 0.00 97 1014.5
20260510021517 58 52 5.0 13.0 0.00 0.00 0.00 97 1014.5
20260510020516 58 27 5.0 9.0 0.00 0.00 0.00 97 1014.4
20260510015518 57 90 6.0 13.0 0.00 0.00 0.00 97 1014.5
20260510014525 56 48 4.0 10.0 0.00 0.00 0.00 97 1014.5
20260510013520 56 62 5.0 11.0 0.00 0.00 0.00 97 1014.2
20260510012525 56 43 7.0 11.0 0.00 0.00 0.00 97 1014.5
20260510011517 55 93 4.0 7.0 0.00 0.00 0.00 97 1014.5
20260510010522 55 25 1.0 4.0 0.00 0.00 0.00 97 1014.5
20260510005516 56 135 2.0 8.0 0.00 0.00 0.00 97 1014.9
20260510004524 56 85 4.0 6.0 0.00 0.00 0.00 97 1015.1
20260510003518 57 75 4.0 9.0 0.00 0.00 0.00 97 1014.5
20260510002524 57 71 6.0 13.0 0.00 0.00 0.00 97 1014.5
20260510001521 57 30 6.0 11.0 0.00 0.00 0.00 97 1014.5
20260510000542 57 32 0.0 5.0 0.00 0.00 0.00 97 1014.5
20260509235523 59 45 0.0 8.0 0.00 0.00 0.00 97 1015.0
20260509234601 59 102 1.0 5.0 0.00 0.00 0.00 97 1015.1
20260509233523 59 61 2.0 5.0 0.00 0.00 0.00 97 1015.3
20260509232523 58 115 3.0 9.0 0.00 0.00 0.00 97 1015.0
20260509231516 57 74 1.0 4.0 0.00 0.00 0.00 97 1015.5
20260509230516 56 46 2.0 8.0 0.00 0.00 0.00 97 1015.5
20260509225520 56 27 2.0 11.0 0.00 0.00 0.00 97 1015.5
20260509224525 56 354 5.0 11.0 0.00 0.00 0.00 97 1015.5
20260509223523 55 159 2.0 5.0 0.00 0.00 0.00 97 1015.5
20260509222536 56 99 4.0 11.0 0.00 0.00 0.00 97 1015.5
20260509221516 58 19 5.0 11.0 0.00 0.00 0.00 97 1015.5
20260509220522 59 60 0.0 5.0 0.00 0.00 0.00 97 1016.4
20260509215525 59 48 1.0 7.0 0.00 0.00 0.00 97 1016.5
20260509214522 59 56 1.0 7.0 0.00 0.00 0.00 97 1016.5
20260509213520 59 0.0 2.0 0.00 0.00 0.00 97 1016.5
20260509212524 59 22 1.0 9.0 0.00 0.00 0.00 97 1016.5
20260509211516 59 107 1.0 6.0 0.00 0.00 0.00 97 1016.4
20260509210518 59 29 1.0 7.0 0.00 0.00 0.00 97 1015.9
20260509205522 60 117 2.0 11.0 0.00 0.00 0.00 97 1015.9
20260509204521 59 58 1.0 7.0 0.00 0.00 0.00 97 1016.3
20260509203556 59 40 3.0 12.0 0.00 0.00 0.00 97 1016.3
20260509202520 59 56 2.0 8.0 0.00 0.00 0.00 97 1016.5
20260509201520 58 47 2.0 8.0 0.00 0.00 0.00 97 1016.5
20260509200516 58 51 3.0 8.0 0.00 0.00 0.00 97 1016.5
20260509195518 58 17 0.0 6.0 0.00 0.00 0.00 97 1016.5
20260509194516 57 90 0.0 5.0 0.00 0.00 0.00 97 1016.5
20260509193522 57 0.0 0.0 0.00 0.00 0.00 97 1016.5
20260509192516 57 0.0 0.0 0.00 0.00 0.00 97 1016.5
20260509191516 57 0.0 0.0 0.00 0.00 0.00 97 1016.5
20260509190522 57 0.0 0.0 0.00 0.00 0.00 97 1016.5
20260509185515 57 0.0 0.0 0.00 0.00 0.00 97 1016.5
20260509184520 58 0.0 0.0 0.00 0.00 0.00 97 1016.5
20260509183519 59 0.0 0.0 0.00 0.00 0.00 97 1016.5
20260509182523 59 0.0 0.0 0.00 0.00 0.00 97 1015.9
20260509181518 59 0.0 0.0 0.00 0.00 0.00 97 1015.5
20260509180516 59 0.0 0.0 0.00 0.00 0.00 97 1015.5
20260509175521 60 2 0.0 5.0 0.00 0.00 0.00 97 1015.9
20260509174518 60 0.0 0.0 0.00 0.00 0.00 97 1015.7
20260509173521 60 0 0.0 4.0 0.00 0.00 0.00 97 1015.7
20260509172523 60 135 0.0 7.0 0.00 0.00 0.00 97 1015.9
20260509171556 60 45 0.0 2.0 0.00 0.00 0.00 97 1016.0
20260509170525 61 0 0.0 2.0 0.00 0.00 0.00 97 1015.7
20260509165518 61 0 0.0 3.0 0.00 0.00 0.00 97 1016.0
20260509164604 62 23 0.0 2.0 0.00 0.00 0.00 97 1016.2
20260509163515 63 143 0.0 8.0 0.00 0.00 0.00 97 1016.5
20260509162517 63 293 0.0 6.0 0.00 0.00 0.00 97 1016.5
20260509161526 63 0.0 2.0 0.00 0.00 0.00 97 1016.5
20260509160523 63 338 0.0 6.0 0.00 0.00 0.00 94 1016.5
20260509155547 64 143 1.0 10.0 0.00 0.00 0.00 94 1016.5
20260509154523 65 25 0.0 4.0 0.00 0.00 0.00 94 1016.5
20260509153522 64 132 1.0 7.0 0.00 0.00 0.00 92 1016.5
20260509152525 64 117 1.0 8.0 0.00 0.00 0.00 89 1016.5
20260509151519 64 45 0.0 3.0 0.00 0.00 0.00 91 1016.5
20260509150538 64 158 0.0 4.0 0.00 0.00 0.00 92 1016.5
20260509145522 64 145 0.0 4.0 0.00 0.00 0.00 90 1016.6
20260509144516 64 0.0 0.0 0.00 0.00 0.00 88 1017.2
20260509143516 65 146 0.0 4.0 0.00 0.00 0.00 90 1017.5
20260509142520 65 129 2.0 8.0 0.00 0.00 0.00 91 1017.5
20260509141545 65 144 1.0 7.0 0.00 0.00 0.00 94 1017.5
20260509140518 66 180 0.0 2.0 0.00 0.00 0.00 97 1017.6
20260509135539 66 92 1.0 6.0 0.00 0.00 0.00 95 1017.9
20260509134525 66 64 0.0 3.0 0.00 0.00 0.00 97 1017.8
20260509133543 66 113 1.0 4.0 0.00 0.00 0.00 97 1018.4
20260509132536 67 64 1.0 8.0 0.00 0.00 0.00 95 1018.5
20260509131522 67 86 1.0 6.0 0.00 0.00 0.00 97 1018.5
20260509130524 68 87 3.0 7.0 0.00 0.00 0.00 96 1018.5
20260509125523 69 77 3.0 11.0 0.00 0.00 0.00 97 1018.5
20260509124521 68 110 2.0 6.0 0.00 0.00 0.00 97 1018.5
20260509123537 68 141 2.0 8.0 0.00 0.00 0.00 97 1018.5
20260509122520 67 131 4.0 10.0 0.00 0.00 0.00 97 1018.6
20260509121518 67 112 3.0 7.0 0.00 0.00 0.00 97 1018.5
20260509120542 67 125 3.0 6.0 0.00 0.00 0.00 97 1018.6
20260509115518 67 129 3.0 9.0 0.00 0.00 0.00 97 1018.5
20260509114516 68 121 3.0 6.0 0.00 0.00 0.00 97 1018.9
20260509113516 67 132 3.0 11.0 0.00 0.00 0.00 97 1019.4
20260509112519 67 160 2.0 11.0 0.00 0.00 0.00 97 1019.5
20260509111517 67 149 3.0 7.0 0.00 0.00 0.00 97 1019.5
20260509110519 67 148 2.0 6.0 0.00 0.00 0.00 97 1019.5
20260509105516 67 138 3.0 10.0 0.00 0.00 0.00 97 1019.2
20260509104522 68 132 3.0 8.0 0.00 0.00 0.00 97 1019.4